Home > Weather > Cruz Bay > Past weeks

Flag for US Virgin Islands Weather for the Past 2 Weeks in Cruz Bay, US Virgin Islands

Now
80 °F

Clear.


Feels Like: 85 °F
Forecast: 80 / 85 °F
Wind: 12 mph from East

Location: Cyril E. King International Airport

Current Time: May 5, 2016 at 4:37:22 AM

Latest Report: May 5, 2016 at 3:53 AM


Visibility: 10 mi

Pressure: 29.93 "Hg

Humidity: 81%

Dew Point: 74 °F

Location of Cruz BayLocation

Historic Weather in Cruz Bay — Graph

°F

Cruz Bay Temperature Yesterday

Maximum temperature yesterday: 86 °F (at 10:53 AM)
Minimum temperature yesterday: 78 °F (at 3:53 AM)
Average temperature yesterday: 82 °F

High & Low Weather Summary for the Past Weeks

 TemperatureHumidityPressure
High88 °F (Apr 21, 12:53 PM)91% (Apr 23, 7:53 AM)30.08 "Hg (Apr 23, 7:53 AM)
Low75 °F (Apr 30, 10:53 AM)51% (Apr 21, 10:53 AM)29.83 "Hg (Apr 26, 2:53 AM)
Average82 °F77%29.95 "Hg
* Reported Apr 20 2:53 AM — May 5 2:53 AM, Cruz Bay, Weather by CustomWeather, © 2016

Note: Actual official high and low records may vary slightly from our data, if they occured in-between our weather recording intervals... More about our weather records

Advertising

Cruz Bay Weather History for the Previous 24 Hours

Scroll right to see more
 ConditionsComfort  
Time TempWeatherWind HumidityBarometerVisibility
2:53 AM
Thu, May 5
81 °FMostly cloudy.9 mph82%29.94 "Hg10 mi
1:53 AM81 °FPassing clouds.9 mph79%29.96 "Hg10 mi
12:53 AM80 °FPassing clouds.9 mph81%29.97 "Hg10 mi
11:53 PM
Wed, May 4
80 °FClear.9 mph81%30.00 "Hg10 mi
10:53 PM80 °FClear.8 mph81%30.00 "Hg10 mi
9:53 PM82 °FClear.14 mph77%29.99 "Hg10 mi
8:53 PM81 °FPassing clouds.8 mph79%29.98 "Hg10 mi
7:53 PM82 °FClear.12 mph77%29.96 "Hg10 mi
6:53 PM83 °FPassing clouds.12 mph77%29.95 "Hg10 mi
5:53 PM84 °FSunny.14 mph72%29.95 "Hg10 mi
4:53 PM85 °FSunny.12 mph72%29.94 "Hg10 mi
3:53 PM86 °FSunny.13 mph70%29.94 "Hg10 mi
2:53 PM86 °FScattered clouds.12 mph70%29.95 "Hg10 mi
1:53 PM86 °FSunny.16 mph70%29.96 "Hg10 mi
12:53 PM86 °FSunny.13 mph70%29.99 "Hg10 mi
11:53 AM86 °FPassing clouds.13 mph70%30.01 "Hg10 mi
10:53 AM86 °FSunny.14 mph70%30.02 "Hg10 mi
9:53 AM85 °FPassing clouds.14 mph70%30.02 "Hg10 mi
8:53 AM83 °FScattered clouds.14 mph72%30.01 "Hg10 mi
7:53 AM83 °FPassing clouds.14 mph72%30.01 "Hg10 mi
6:53 AM81 °FSunny.8 mph77%30.00 "Hg10 mi
5:53 AM79 °FSunny.8 mph79%29.98 "Hg10 mi
4:53 AM79 °FClear.9 mph79%29.96 "Hg10 mi
Weather by CustomWeather, © 2016

See weather overviewHow to use our weather pages